Weather History for Lafayette, IN

Change the Weather History Date:

Thursday, November 8, 2012

  Actual Average Record
Temperature  
Mean Temperature 37 °F 46 °F  
Max Temperature 45 °F 55 °F 75 °F (1999)
Min Temperature 29 °F 37 °F 10 °F (1991)
Degree Days  
Heating Degree Days 28 19  
Month to date heating degree days 219 139  
Since 1 July heating degree days 800 573  
Cooling Degree Days 0 0  
Month to date cooling degree days 0 0  
Year to date cooling degree days 1181 982  
Moisture  
Dew Point 32 °F    
Average Humidity 83    
Maximum Humidity 100    
Minimum Humidity 65    
Precipitation  
Precipitation 0.00 in 0.09 in 0.80 in (1950)
Month to date precipitation 0.19 0.73  
Year to date precipitation 27.09 31.83  
Sea Level Pressure  
Sea Level Pressure 30.20 in    
Wind  
Wind Speed 2 mph (SW)    
Max Wind Speed 8 mph    
Max Gust Speed 10 mph    
Visibility 4 miles    
Events Fog    
T = Trace of Precipitation, MM = Missing Value Source: NWS Daily Summary

Daily Weather History Graph

Daily Weather History Graph

Search for Another Location

Airport:

Trip Planner

Search our weather history database for the weather conditions in past years. The results will help you decide how hot, cold, wet, or windy it might be!

Date:

Astronomy

Nov. 08, 2012 Rise Set
Actual Time 7:26 AM EST 5:36 PM EST
Civil Twilight 6:57 AM EST 6:05 PM EST
Nautical Twilight 6:24 AM EST 6:37 PM EST
Astronomical Twilight 5:52 AM EST 7:09 PM EST
Moon 1:19 AM EST (11/8) 2:18 PM EST (11/8)
Length of Visible Light 11h 07m
Length of Day
10h 10m
Waning Crescent, 33% of the Moon is Illuminated
Nov 8
Waning Crescent
Nov 13
New
Nov 20
First Quarter
Nov 28
Full
Dec 6
Last Quarter

Hourly Weather History & Observations

Time (EST) Temp. Windchill Dew Point Humidity Pressure Visibility Wind Dir Wind Speed Gust Speed Precip Events Conditions
12:30 AM 33.8 °F - 32.0 °F 93% 30.16 in 0.2 mi Calm Calm - N/A Fog Fog
12:44 AM 33.8 °F - 32.0 °F 93% 30.16 in 0.2 mi Calm Calm - N/A Fog Fog
12:54 AM 32.0 °F - 30.9 °F 96% 30.17 in 0.5 mi Calm Calm - N/A Fog Fog
1:01 AM 30.2 °F - 30.2 °F 100% 30.17 in 0.2 mi Calm Calm - N/A Fog Light Freezing Fog
1:13 AM 30.2 °F - 30.2 °F 100% 30.17 in 0.2 mi Calm Calm - N/A Fog Light Freezing Fog
1:54 AM 28.9 °F 25.2 °F 28.9 °F 100% 30.18 in 0.2 mi West 3.5 mph - N/A Fog Light Freezing Fog
2:54 AM 28.9 °F - 28.0 °F 96% 30.19 in 0.2 mi Calm Calm - N/A Fog Light Freezing Fog
3:11 AM 28.4 °F - 28.4 °F 100% 30.18 in 0.2 mi Calm Calm - N/A Fog Light Freezing Fog
3:22 AM 30.2 °F - 30.2 °F 100% 30.18 in 0.5 mi Calm Calm - N/A Fog Light Freezing Fog
3:33 AM 30.2 °F - 30.2 °F 100% 30.18 in 1.2 mi Calm Calm - N/A   Overcast
3:54 AM 30.0 °F - 28.9 °F 96% 30.19 in 1.0 mi Calm Calm - N/A   Overcast
4:02 AM 30.2 °F - 28.4 °F 93% 30.18 in 0.5 mi Calm Calm - N/A Fog Light Freezing Fog
4:26 AM 30.2 °F - 28.4 °F 93% 30.18 in 0.2 mi Calm Calm - N/A Fog Light Freezing Fog
4:39 AM 30.2 °F - 28.4 °F 93% 30.18 in 0.5 mi Calm Calm - N/A Fog Light Freezing Fog
4:54 AM 28.9 °F - 28.0 °F 96% 30.19 in 0.2 mi Calm Calm - N/A Fog Light Freezing Fog
5:16 AM 28.4 °F - 28.4 °F 100% 30.19 in 0.2 mi Calm Calm - N/A Fog Light Freezing Fog
5:23 AM 30.2 °F - 28.4 °F 93% 30.19 in 0.2 mi Calm Calm - N/A Fog Light Freezing Fog
5:37 AM 30.2 °F - 30.2 °F 100% 30.19 in 1.0 mi Calm Calm - N/A   Overcast
5:54 AM 30.0 °F - 30.0 °F 100% 30.21 in 2.5 mi Calm Calm - N/A   Overcast
6:42 AM 30.2 °F - 30.2 °F 100% 30.21 in 3.0 mi Calm Calm - N/A   Overcast
6:54 AM 30.9 °F - 30.9 °F 100% 30.22 in 2.0 mi Calm Calm - N/A   Overcast
7:30 AM 33.8 °F - 32.0 °F 93% 30.21 in 2.0 mi Calm Calm - N/A   Overcast
7:54 AM 33.1 °F 30.0 °F 33.1 °F 100% 30.24 in 1.5 mi West 3.5 mph - N/A   Overcast
8:54 AM 35.1 °F - 35.1 °F 100% 30.25 in 1.5 mi Calm Calm - N/A   Overcast
9:54 AM 37.0 °F - 37.0 °F 100% 30.26 in 1.8 mi Calm Calm - N/A   Overcast
10:24 AM 39.2 °F - 37.4 °F 93% 30.24 in 1.0 mi Calm Calm - N/A   Overcast
10:54 AM 39.9 °F - 39.0 °F 97% 30.26 in 2.0 mi Calm Calm - N/A   Overcast
11:01 AM 39.2 °F - 39.2 °F 100% 30.24 in 1.0 mi Calm Calm - N/A   Overcast
11:54 AM 43.0 °F - 39.9 °F 89% 30.25 in 1.0 mi Calm Calm - N/A   Overcast
12:01 PM 42.8 °F 41.1 °F 39.2 °F 87% 30.23 in 2.0 mi West 3.5 mph - N/A   Overcast
12:34 PM 44.6 °F 42.2 °F 37.4 °F 76% 30.23 in 6.0 mi West 4.6 mph - N/A   Haze
12:54 PM 44.1 °F 41.5 °F 36.0 °F 73% 30.23 in 7.0 mi WSW 4.6 mph - N/A   Overcast
1:30 PM 44.6 °F 40.7 °F 35.6 °F 71% 30.20 in 10.0 mi SW 6.9 mph - N/A   Overcast
1:54 PM 45.0 °F 41.2 °F 34.0 °F 65% 30.21 in 10.0 mi WSW 6.9 mph - N/A   Overcast
2:54 PM 45.0 °F 43.5 °F 35.1 °F 68% 30.20 in 10.0 mi SW 3.5 mph - N/A   Overcast
3:54 PM 45.0 °F 41.8 °F 34.0 °F 65% 30.19 in 10.0 mi SW 5.8 mph - N/A   Overcast
4:54 PM 45.0 °F 41.8 °F 34.0 °F 65% 30.18 in 10.0 mi WSW 5.8 mph - N/A   Overcast
5:54 PM 44.1 °F 42.5 °F 33.1 °F 65% 30.18 in 10.0 mi SSW 3.5 mph - N/A   Overcast
6:54 PM 42.1 °F 40.2 °F 34.0 °F 73% 30.18 in 10.0 mi South 3.5 mph - N/A   Mostly Cloudy
7:02 PM 42.8 °F 41.1 °F 33.8 °F 70% 30.17 in 10.0 mi South 3.5 mph - N/A   Scattered Clouds
7:54 PM 39.9 °F 37.8 °F 33.1 °F 77% 30.18 in 8.0 mi South 3.5 mph - N/A   Clear
8:54 PM 36.0 °F - 32.0 °F 86% 30.18 in 7.0 mi Calm Calm - N/A   Clear
9:54 PM 35.1 °F - 32.0 °F 89% 30.17 in 7.0 mi Calm Calm - N/A   Clear
10:54 PM 36.0 °F - 32.0 °F 86% 30.16 in 6.0 mi Calm Calm - N/A   Clear
11:54 PM 36.0 °F - 32.0 °F 86% 30.15 in 6.0 mi Calm Calm - N/A   Clear